User: anonymous   Login
Location: Unspecified
(0.0000°N, 0.0000°E)
Time: 20:45:07
(UTC+00:00)
Language:

PCSat - Orbit

View from above orbital plane
View from above orbital plane
View from above satellite
View from above satellite

Ground track
Ground track

The orbit data is extracted from the following two-line orbital elements,

1 26931U 01043C   22222.13972068  .00000045  00000-0  48782-4 0  9997
2 26931  67.0506 279.8242 0006904 257.8241 102.2087 14.30722558 89249
Epoch (UTC): 10 August 2022 03:21:11
Eccentricity: 0.0006904
inclination: 67.0506°
perigee height: 784 km
apogee height: 794 km
right ascension of ascending node: 279.8242°
argument of perigee: 257.8241°
revolutions per day: 14.30722558
mean anomaly at epoch: 102.2087°
orbit number at epoch: 8924

The dashed part of the orbit path shows where the satellite is in the earth's shadow,  

DLR